OPS 4682 DEB, 38423

Orbit data source: Space-Track

OPS 4682 DEB, 38423 is space debris in LEO originally from a launch on Sat, 03 Apr 1965 UTC launched from the Air Force Western Test Range (AFWTR). Debris objects in space refer to the collection of defunct objects orbiting the Earth. Examples of debris include non-operational satellites, rocket bodies, and fragments generated from explosions, collisions, or faulty payload assembly.

Loading next visibility...
Identifier
38423, 1965-027EC
Orbit
LEO
Country
Flag of USUS
Related business
Manufacturer
Unknown
Mission
Spacecraft
Bus & Motor
Unknown
Mass
Unknown
Launch date (UTC)
1965-04-03 (61 years ago)
Launch vehicle
Unknown
Launch site
Air Force Western Test Range (AFWTR)
Object type
Payload
Rocket body
Debris
Shape & HBR
Unknown shape, 0.1 m
Radar Cross Section
Medium (>0.1 m² and <1 m²)

Expand to show TLE details & history
Last TLE update: 1 day ago

TLE from 1 day ago
0 OPS 4682 DEB
1 38423U 65027EC  26174.26114359 -.00000088  00000-0 -33812-3 0  9999
2 38423  90.2478  11.9608 0014796 216.5254 143.4858 12.95300409634907
Epoch: 2026-06-23T06:16Z
TLE epoch observation values (Epoch: 2026-06-23T06:16:02.806Z)
Latitude
0.00006°
Longitude
6.51386°
Altitude
1,292.547 km
Speed
7.206 km/s
True Right ascension
00h 47m 50s
True Declination
0° 00' 00"
Sunlit
Object was in daylight at epoch
Visualization orbit readout
Latitude
Unknown
Longitude
Unknown
Altitude
Unknown
Speed
Unknown
Apparent Right ascension
Unknown
Apparent Declination
Unknown
Sunlit
N/A
Visualization observer readout
Local Sidereal Time
22:41:56
Azimuth
Unknown
Elevation
Unknown
Doppler factor
Unknown
Orbital elements
Apogee altitude
1,289.017 km
Perigee altitude
1,266.362 km
Semi-major axis
7,655.827 km
Eccentricity
0.00148
Inclination
90.2478°
RAAN
11.9608°
Arg. of periapsis
216.5254°
True anomaly
143.58654°
Mean anomaly
143.4858°
Eccentric anomaly
143.53618°
Mean motion
3.24007 °/min
Orbital period
111.11 mins
BSTAR
-0.00033812
Loading maneuver chart data...
Computing Atmospheric mass density...
Loading historical data...
Loading historical data...
Loading historical data...
Loading historical data...
Loading historical data...
Loading historical data...
Loading historical data...

Documentation

Showing up to 5 results
|